Total_Precipitation_Accumulation
0.09 0.17 0.20 0.21 0.20 0.18 0.13 0.12 0.18 0.25 0.40 0.53 0.63 0.76 0.68 0.68 0.74 0.75 0.62 0.54 0.45 0.45 0.54 0.64 0.70 0.72 0.79 0.85 0.94 1.08 1.08 1.06 1.10 1.16 1.16 1.20 1.24 1.25 1.27 1.34 1.36 1.52 1.56 1.64
0.11 0.14 0.14 0.16 0.18 0.16 0.11 0.09 0.10 0.19 0.39 0.55 0.68 0.70 0.65 0.57 0.56 0.70 0.63 0.55 0.53 0.53 0.60 0.64 0.66 0.68 0.71 0.72 0.82 0.98 1.06 1.16 1.25 1.24 1.14 1.18 1.19 1.17 1.22 1.33 1.42 1.52 1.58 1.69
0.21 0.17 0.18 0.25 0.21 0.18 0.15 0.13 0.14 0.25 0.39 0.55 0.69 0.61 0.64 0.60 0.53 0.52 0.52 0.51 0.58 0.63 0.65 0.65 0.65 0.63 0.64 0.62 0.74 1.02 1.12 1.14 1.28 1.35 1.25 1.30 1.33 1.32 1.33 1.38 1.49 1.57 1.71 1.78
0.28 0.31 0.38 0.29 0.24 0.23 0.25 0.26 0.24 0.28 0.39 0.61 0.79 0.70 0.63 0.63 0.62 0.56 0.46 0.50 0.58 0.60 0.61 0.63 0.64 0.65 0.65 0.66 0.73 0.98 1.15 1.21 1.41 1.56 1.46 1.47 1.47 1.49 1.52 1.57 1.62 1.75 1.79 1.71
0.42 0.44 0.47 0.39 0.35 0.36 0.45 0.56 0.47 0.48 0.61 0.67 0.65 0.67 0.72 0.67 0.61 0.56 0.55 0.59 0.61 0.65 0.67 0.73 0.80 0.82 0.82 0.89 0.99 1.13 1.25 1.36 1.58 1.77 1.81 1.78 1.72 1.80 1.84 1.85 1.87 1.93 1.97 1.92
0.57 0.64 0.73 0.67 0.53 0.49 0.63 1.00 0.81 0.66 0.69 0.71 0.70 0.88 0.90 0.66 0.56 0.54 0.57 0.65 0.77 0.87 0.86 0.87 0.95 0.95 0.98 1.09 1.28 1.41 1.43 1.45 1.56 1.75 1.83 1.81 1.80 1.95 2.08 2.10 2.07 2.09 1.98 1.85
0.64 0.75 0.75 0.67 0.60 0.63 1.11 1.47 1.04 0.89 0.91 0.95 0.94 0.91 0.78 0.71 0.71 0.63 0.59 0.66 0.72 0.75 0.86 0.97 1.07 1.14 1.24 1.28 1.36 1.40 1.41 1.44 1.53 1.76 2.05 1.98 2.00 2.06 2.16 2.20 2.22 2.23 2.14 2.02
0.76 0.99 1.12 0.74 0.65 1.00 1.35 1.24 1.26 1.22 1.20 1.14 1.00 0.82 0.71 0.70 0.75 0.65 0.62 0.70 0.71 0.71 0.82 0.99 1.18 1.35 1.39 1.38 1.40 1.48 1.49 1.51 1.59 1.82 1.92 1.97 2.09 2.14 2.25 2.34 2.33 2.29 2.29 2.15
1.02 1.23 1.14 0.90 0.96 1.00 1.07 1.19 1.25 1.18 1.19 1.16 1.10 0.98 0.87 0.82 0.77 0.72 0.72 0.74 0.81 0.83 0.88 0.98 1.15 1.36 1.49 1.50 1.49 1.47 1.44 1.44 1.53 1.66 1.73 1.86 1.94 1.89 1.94 2.05 2.05 2.08 2.12 2.08
1.41 1.41 1.24 1.07 0.98 0.98 0.94 1.02 1.02 0.99 0.94 0.93 0.93 0.91 0.88 0.88 0.89 0.91 0.92 0.88 0.90 0.91 0.93 1.00 1.09 1.27 1.41 1.39 1.41 1.44 1.38 1.34 1.44 1.63 1.73 1.80 1.86 1.84 1.89 1.95 1.99 2.05 2.06 2.01
1.74 1.70 1.50 1.40 1.23 1.18 1.04 1.00 0.98 0.95 0.92 0.86 0.78 0.77 0.77 0.74 0.75 0.81 0.88 0.91 0.88 0.87 0.91 0.93 1.01 1.21 1.35 1.36 1.39 1.47 1.44 1.39 1.45 1.55 1.65 1.79 1.84 1.87 1.89 1.89 1.86 1.85 1.86 1.82
1.86 1.70 1.59 1.58 1.29 1.24 1.30 1.18 1.04 1.04 1.00 0.91 0.78 0.72 0.69 0.68 0.68 0.70 0.78 0.90 0.93 0.95 0.94 0.93 1.00 1.15 1.27 1.43 1.58 1.61 1.53 1.48 1.44 1.41 1.48 1.56 1.63 1.59 1.53 1.49 1.47 1.41 1.42 1.33
1.27 1.34 1.43 1.56 1.40 1.22 1.23 1.17 1.09 1.08 1.04 0.94 0.84 0.73 0.61 0.58 0.59 0.65 0.76 0.90 1.00 1.08 1.04 1.02 1.07 1.16 1.25 1.38 1.56 1.67 1.62 1.48 1.37 1.30 1.30 1.32 1.42 1.51 1.54 1.43 1.33 1.23 1.18 1.06
1.27 1.37 1.47 1.43 1.44 1.38 1.22 1.14 1.07 1.03 1.00 0.91 0.86 0.79 0.69 0.67 0.64 0.71 0.86 0.97 0.97 1.01 1.03 1.03 1.05 1.12 1.21 1.37 1.54 1.61 1.57 1.47 1.31 1.24 1.22 1.19 1.24 1.33 1.38 1.42 1.38 1.20 1.05 0.95
1.44 1.38 1.38 1.32 1.31 1.38 1.33 1.26 1.13 1.06 0.98 0.95 0.92 0.89 0.82 0.76 0.74 0.78 0.87 1.04 1.17 1.18 1.10 1.08 1.10 1.13 1.17 1.32 1.45 1.52 1.51 1.42 1.30 1.26 1.25 1.14 1.06 1.09 1.13 1.18 1.27 1.22 1.06 0.99
1.33 1.26 1.26 1.31 1.36 1.30 1.23 1.23 1.17 1.07 0.89 0.85 0.90 0.89 0.83 0.79 0.82 0.88 0.94 1.09 1.37 1.52 1.40 1.24 1.15 1.12 1.16 1.27 1.35 1.32 1.28 1.21 1.17 1.18 1.18 1.13 1.09 1.09 1.15 1.22 1.28 1.25 1.13 1.02
1.16 1.11 1.10 1.15 1.20 1.24 1.20 1.12 1.06 0.97 0.86 0.82 0.83 0.82 0.81 0.84 0.95 1.10 1.18 1.24 1.31 1.33 1.34 1.34 1.25 1.16 1.20 1.30 1.36 1.26 1.11 1.02 0.95 0.96 1.01 1.01 1.02 1.09 1.19 1.26 1.28 1.18 1.01 0.88
0.90 0.91 0.95 0.96 0.98 1.08 1.09 0.98 0.89 0.85 0.82 0.84 0.83 0.83 0.86 0.93 1.14 1.36 1.40 1.35 1.32 1.20 1.12 1.14 1.15 1.15 1.23 1.28 1.33 1.30 1.13 0.98 0.86 0.83 0.88 0.91 1.00 1.10 1.16 1.14 1.07 1.01 0.90 0.81
0.70 0.74 0.78 0.82 0.85 0.86 0.88 0.88 0.89 0.84 0.79 0.79 0.84 0.88 0.94 1.02 1.21 1.42 1.48 1.53 1.51 1.33 1.07 0.96 0.99 1.01 1.09 1.16 1.23 1.21 1.00 0.81 0.67 0.62 0.66 0.73 0.87 1.04 1.08 1.01 0.90 0.85 0.82 0.78
0.66 0.64 0.65 0.65 0.68 0.71 0.73 0.73 0.74 0.77 0.75 0.78 0.84 0.88 1.00 1.10 1.27 1.46 1.54 1.57 1.47 1.27 1.02 0.84 0.80 0.79 0.85 1.00 1.08 1.02 0.88 0.73 0.59 0.53 0.54 0.61 0.76 0.94 0.95 0.86 0.82 0.83 0.80 0.78
0.66 0.64 0.61 0.60 0.64 0.64 0.64 0.64 0.64 0.71 0.76 0.79 0.88 1.01 1.08 1.08 1.20 1.45 1.65 1.65 1.36 1.06 0.90 0.86 0.77 0.70 0.74 0.91 0.94 0.85 0.77 0.68 0.56 0.52 0.56 0.68 0.84 0.92 0.84 0.76 0.74 0.75 0.72 0.76
0.71 0.67 0.62 0.60 0.64 0.67 0.68 0.69 0.67 0.73 0.81 0.82 0.87 1.00 1.06 1.17 1.17 1.19 1.29 1.48 1.35 1.13 0.87 0.73 0.70 0.73 0.79 0.88 0.85 0.78 0.74 0.70 0.65 0.62 0.67 0.78 0.87 0.89 0.81 0.78 0.82 0.77 0.73 0.74
0.74 0.69 0.65 0.61 0.65 0.71 0.70 0.71 0.70 0.79 0.92 0.92 0.91 0.91 0.99 1.10 1.16 1.26 1.20 1.10 1.11 1.08 0.88 0.74 0.69 0.74 0.80 0.83 0.82 0.76 0.77 0.74 0.69 0.68 0.72 0.79 0.83 0.84 0.84 0.85 0.86 0.81 0.77 0.74
0.72 0.69 0.68 0.65 0.64 0.73 0.77 0.74 0.71 0.77 0.88 0.84 0.77 0.75 0.86 1.00 1.00 0.96 1.04 1.11 1.06 1.02 0.89 0.82 0.76 0.71 0.73 0.72 0.75 0.78 0.82 0.77 0.70 0.66 0.67 0.72 0.78 0.84 0.91 0.92 0.90 0.85 0.79 0.73
0.71 0.69 0.67 0.69 0.75 0.84 0.84 0.81 0.85 0.87 0.93 0.86 0.75 0.68 0.70 0.87 0.97 0.87 0.88 0.94 0.97 0.93 0.84 0.82 0.80 0.82 0.81 0.81 0.80 0.80 0.75 0.66 0.61 0.60 0.64 0.73 0.77 0.81 0.86 0.86 0.81 0.81 0.79 0.77
0.77 0.73 0.71 0.73 0.76 0.81 0.86 0.98 1.09 1.10 1.13 1.09 0.89 0.69 0.65 0.72 0.78 0.84 0.90 0.91 0.93 0.95 0.82 0.76 0.75 0.80 0.84 0.89 0.86 0.76 0.67 0.63 0.62 0.63 0.67 0.73 0.76 0.78 0.82 0.83 0.79 0.80 0.81 0.80
0.71 0.69 0.70 0.72 0.75 0.75 0.78 0.90 1.02 1.13 1.25 1.26 1.01 0.71 0.63 0.70 0.80 0.86 0.90 0.95 1.01 1.01 0.93 0.80 0.73 0.76 0.80 0.83 0.84 0.78 0.69 0.64 0.64 0.65 0.66 0.67 0.70 0.78 0.84 0.87 0.81 0.79 0.80 0.79